Location: College Park
(38.9810°N, 76.9370°W)
Time: 04:21:24
(UTC-05:00)

N. Korean satellite - Visible Passes

Search period start: 21 February 2019 00:00
Search period end: 03 March 2019 00:00
Orbit: 456 x 510 km, 97.2° (Epoch: 20 February)

Date Brightness Start Highest point End Pass type
(mag) Time Alt. Az. Time Alt. Az. Time Alt. Az.
21 Feb 9.7 05:31:18 10° NE 05:33:39 17° E 05:35:59 10° SE visible
23 Feb 6.8 06:14:17 10° NNE 06:17:43 72° E 06:21:08 10° S visible
23 Feb 9.9 18:22:42 10° SW 18:25:28 20° W 18:28:12 10° NW visible
24 Feb 8.6 05:49:50 10° NNE 05:52:55 30° E 05:55:59 10° SSE visible
25 Feb 9.9 05:26:02 10° ENE 05:28:02 15° E 05:30:02 10° SE visible
26 Feb 10.5 18:43:31 10° WSW 18:44:45 11° W 18:46:00 10° WNW visible
27 Feb 7.2 06:08:42 10° NNE 06:12:06 59° E 06:15:29 10° S visible
27 Feb 9.6 18:16:55 10° SSW 18:19:51 23° W 18:22:46 10° NW visible
28 Feb 9.0 05:44:21 10° NE 05:47:17 26° E 05:50:12 10° SSE visible
01 Mar 10.1 05:20:49 10° ENE 05:22:23 13° E 05:23:56 10° ESE visible
02 Mar 10.3 18:37:20 10° WSW 18:39:06 13° W 18:40:52 10° WNW visible
